User: anonymous   Login
Location: Ohmer (historical)
(38.0096°N, 122.0227°W)
Time: 09:50:06
(UTC+00:00)
Language:

Cosmos 1503 Rocket - Orbit

View from above orbital plane
View from above orbital plane
View from above satellite
View from above satellite

Ground track
Ground track

The orbit is defined by the following mean orbital elements,

1 14402U          26106.65350337 +.00000000 +00000-0 +17872-4 0 00000
2 14402  74.0427  92.8061 0027372 221.8159 138.0904 14.37382202    09
Epoch (UTC): 16 April 2026 15:41:02
Eccentricity: 0.0027372
inclination: 74.0427°
perigee height: 748 km
apogee height: 787 km
right ascension of ascending node: 92.8061°
argument of perigee: 221.8159°
revolutions per day: 14.37382202
mean anomaly at epoch: 138.0904°

The dashed part of the orbit path shows where the satellite is in the earth's shadow,  

DLR